TimeCST,TemperatureF,Dew PointF,Humidity,Sea Level PressureIn,VisibilityMPH,Wind Direction,Wind SpeedMPH,Gust SpeedMPH,PrecipitationIn,Events,Conditions,WindDirDegrees,DateUTC
12:56 AM,20.1,16.2,85,30.07,10.0,West,6.9,-,N/A,,Clear,260,2013-02-24 06:56:00
1:56 AM,21.0,16.2,81,30.08,10.0,West,8.1,-,N/A,,Clear,270,2013-02-24 07:56:00
2:56 AM,20.1,16.2,85,30.08,10.0,WSW,6.9,-,N/A,,Clear,250,2013-02-24 08:56:00
3:56 AM,20.1,16.2,85,30.09,10.0,West,5.8,-,N/A,,Clear,260,2013-02-24 09:56:00
4:56 AM,17.1,14.0,88,30.12,9.0,WSW,4.6,-,N/A,,Clear,240,2013-02-24 10:56:00
5:56 AM,17.1,14.0,88,30.13,8.0,West,3.5,-,N/A,,Clear,280,2013-02-24 11:56:00
6:56 AM,15.1,13.1,92,30.15,5.0,SW,4.6,-,N/A,,Clear,230,2013-02-24 12:56:00
7:56 AM,19.0,16.2,89,30.17,6.0,SW,4.6,-,N/A,,Clear,220,2013-02-24 13:56:00
8:56 AM,25.2,18.1,75,30.19,8.0,West,4.6,-,N/A,,Clear,280,2013-02-24 14:56:00
9:56 AM,27.1,21.0,78,30.19,7.0,South,4.6,-,N/A,,Clear,190,2013-02-24 15:56:00
10:56 AM,29.1,22.1,75,30.19,8.0,South,4.6,-,N/A,,Clear,180,2013-02-24 16:56:00
11:56 AM,32.9,22.1,65,30.18,10.0,East,5.8,-,N/A,,Clear,80,2013-02-24 17:56:00
12:56 PM,34.0,23.0,64,30.18,10.0,SSE,3.5,-,N/A,,Clear,150,2013-02-24 18:56:00
1:56 PM,34.9,24.1,65,30.17,10.0,SSW,8.1,-,N/A,,Clear,200,2013-02-24 19:56:00
2:56 PM,36.0,24.1,62,30.16,10.0,SSW,4.6,-,N/A,,Clear,200,2013-02-24 20:56:00
3:56 PM,36.0,25.2,65,30.16,10.0,South,4.6,-,N/A,,Clear,190,2013-02-24 21:56:00
4:56 PM,34.9,26.1,70,30.17,10.0,South,5.8,-,N/A,,Clear,180,2013-02-24 22:56:00
5:56 PM,32.9,25.2,73,30.17,10.0,SSE,4.6,-,N/A,,Clear,160,2013-02-24 23:56:00
6:56 PM,31.1,27.1,85,30.18,10.0,SE,5.8,-,N/A,,Clear,140,2013-02-25 00:56:00
7:56 PM,29.1,25.2,85,30.18,10.0,SSE,6.9,-,N/A,,Clear,150,2013-02-25 01:56:00
8:56 PM,28.0,24.1,85,30.18,10.0,South,6.9,-,N/A,,Clear,170,2013-02-25 02:56:00
9:56 PM,28.0,25.2,89,30.18,10.0,SSE,5.8,-,N/A,,Clear,160,2013-02-25 03:56:00
10:56 PM,27.1,25.2,92,30.18,6.0,ESE,5.8,-,N/A,,Clear,110,2013-02-25 04:56:00
11:56 PM,28.0,25.2,89,30.16,9.0,East,6.9,-,N/A,,Clear,90,2013-02-25 05:56:00